#timestamp,LO_Frequency,Hit,StdDev 
1627480815.5,286047002.2,N
1627480835.3,286047002.7,N
1627480855.2,286047000.4,N
1627480875.9,286047000.1,N
1627480895.7,286046999.9,N
1627480915.6,286047002.3,N
1627480935.4,286047002.4,N
1627480955.2,286047002.8,N
1627480975.1,286047002.6,N
1627480976.0,286047002.6,N
1627480995.8,286047002.4,N
1627481015.7,286047002.7,N
1627481035.5,286047000.3,N
1627481055.3,286047002.3,N
1627481075.2,286047000.2,N
1627481095.9,286047002.8,N
1627481115.7,286047000.9,N
1627481135.6,286047000.4,N
1627481155.4,286046998.6,N
1627481175.2,286047001.2,N
1627481195.1,286047000.8,N
1627481196.0,286047000.8,N
1627481215.8,286047000.9,N
1627481235.7,286046999.7,N
1627481255.5,286046999.8,N
1627481275.3,286047000.2,N
1627481295.2,286047000.5,N
1627481315.0,286047000.4,N
1627481315.9,286047000.4,N
1627481335.8,286047000.0,N
1627481355.6,286046999.8,N
1627481375.4,286047000.4,N
1627481395.3,286047000.3,N
1627481415.1,286047002.8,N
1627481416.0,286047002.8,N
1627481435.8,286046999.7,N
1627481455.7,286047002.7,N
1627481475.5,286047002.7,N
1627481495.3,286047002.3,N
1627481515.2,286046999.7,N
1627481535.0,286047002.7,N
1627481535.9,286047002.7,N
1627481555.8,286047001.6,N
1627481575.6,286047001.9,N
1627481595.4,286047002.4,N
1627481615.3,286047004.0,Y
1627481635.1,286046999.7,P
1627481655.9,286046998.9,N
1627481675.7,286046998.9,N
1627481695.5,286046996.7,Y
1627481715.4,286046999.2,P
1627481735.2,286046996.5,P
1627481755.0,286046999.4,N
1627481755.9,286046999.4,N
1627481775.8,286046999.6,N
1627481795.6,286046999.1,N
1627481815.5,286046996.9,Y
1627481835.3,286047000.8,P
1627481855.1,286046999.3,N
1627481875.9,286047001.1,N
1627481895.7,286047001.2,N
1627481915.5,286047001.1,N
1627481935.4,286046999.0,N
1627481955.2,286047001.0,N
1627481975.1,286047000.6,N
1627482006.0,286047002.7,E
1627482015.9,286047000.7,N
1627482035.7,286046999.5,P
1627482055.6,286046996.9,P
1627482075.4,286046997.8,N
1627482095.2,286046999.5,N
1627482115.1,286046999.1,N
1627482116.0,286046999.1,N
1627482135.8,286046996.7,N
1627482155.7,286046999.2,N
1627482175.5,286046998.7,N
1627482195.3,286046999.4,N
1627482215.2,286046999.5,N
1627482235.0,286046999.0,N
1627482235.9,286046999.0,N
1627482255.7,286046998.9,N
1627482275.6,286046999.1,N
1627482295.4,286046996.6,Y
1627482315.3,286046998.1,P
1627482335.1,286046998.8,P
1627482355.8,286046998.7,P
1627482375.7,286046998.4,Y
1627482395.5,286047000.4,P
1627482415.4,286047000.5,N
1627482435.2,286046999.7,N
1627482455.0,286046999.7,N
1627482455.9,286046999.7,N
1627482475.8,286047000.7,N
1627482495.6,286047000.3,N
1627482515.4,286046999.9,N
1627482535.3,286047001.2,N
1627482555.1,286046998.1,N
1627482575.9,286047000.9,N
1627482595.7,286046998.6,N
1627482615.6,286047001.2,N
1627482635.4,286047000.4,N
1627482655.2,286047000.5,N
1627482675.1,286047000.1,N
1627482676.0,286047000.1,N
1627482695.8,286047000.2,N
1627482715.6,286047000.4,N
1627482735.5,286047000.5,N
1627482755.3,286047000.5,N
1627482775.2,286047000.9,N
1627482795.9,286047000.0,N
1627482815.7,286047002.7,Y
1627482835.6,286046999.7,P
1627482855.4,286047000.2,N
1627482875.3,286047000.4,N
1627482895.1,286047002.6,Y
1627482896.0,286047002.6,P
1627482915.8,286047001.5,N
1627482935.7,286047001.5,N
1627482955.5,286047002.3,N
1627482975.4,286047001.9,N
1627482995.2,286046999.8,N
1627483015.0,286046999.9,N
1627483015.9,286046999.9,N
1627483035.8,286047000.0,N
1627483055.6,286047001.7,N
1627483075.4,286047002.6,N
1627483095.3,286047002.5,N
1627483115.1,286047001.7,N
1627483135.9,286047004.1,Y
1627483155.7,286047002.8,P
1627483175.5,286047001.1,N
1627483195.4,286047000.2,N
1627483215.2,286047000.2,N
1627483235.0,286047002.5,N
1627483235.9,286047002.5,N
1627483255.8,286046999.9,N
1627483275.6,286047002.6,N
1627483295.5,286047002.0,N
1627483315.3,286047003.6,Y
1627483335.1,286047004.4,P
1627483355.9,286047004.4,P
1627483375.7,286047004.0,N
1627483395.5,286047004.3,Y
1627483415.4,286046998.5,P
1627483435.2,286046998.6,N
1627483455.1,286046997.8,N
1627483456.0,286046997.8,N
1627483475.8,286046997.3,N
1627483495.6,286046996.7,N
1627483515.5,286046996.5,N
1627483535.3,286046998.7,N
1627483555.2,286046998.1,N
1627483575.9,286047000.5,N
1627483595.7,286047000.4,N
1627483615.6,286047000.2,N
1627483635.4,286047002.4,N
1627483655.2,286047000.6,N
1627483675.1,286047000.3,N
1627483676.0,286047000.3,N
1627483695.8,286047000.2,N
1627483715.7,286047000.7,N
1627483735.5,286047000.9,N
1627483755.3,286046998.5,N
1627483775.2,286047000.6,N
1627483795.9,286047001.0,N
1627483815.7,286047000.4,N
1627483835.6,286046998.4,N
1627483855.4,286046998.5,N
1627483875.2,286046998.7,N
1627483895.1,286046998.7,N
1627483896.0,286046998.7,N
1627483915.8,286046998.8,N
1627483935.7,286047000.8,N
1627483955.5,286046999.3,N
1627483975.3,286046996.5,N
1627483995.2,286046999.6,N
1627484015.0,286046997.0,N
1627484015.9,286046997.0,N
1627484035.8,286046996.6,N
1627484055.6,286046996.8,N
1627484075.4,286046997.3,N
1627484095.3,286046995.2,Y
1627484115.1,286046995.0,P
1627484135.8,286046997.6,N
1627484155.7,286046995.8,N
1627484175.5,286046997.4,N
1627484195.4,286046998.0,N
1627484215.2,286046996.8,N
1627484235.0,286046997.1,N
1627484235.9,286046997.1,N
1627484255.8,286046999.5,N
1627484275.6,286046997.0,N
1627484295.4,286046996.5,N
1627484315.3,286046999.6,N
1627484335.1,286046996.6,N
1627484355.9,286046997.0,N
1627484375.7,286046996.8,N
1627484395.5,286046997.2,N
